POLYTECH-UNIVERSE 3 (R*) (57191 NORAD) Tracking and Keplerian Element Data

This shows tracking and keplerian element data for the satellite.

Feedback or suggestion? Click here.




ElementValue
Catalog57191
NamePOLYTECH-UNIVERSE 3 (R*)
Epoch Orbit7123
Epoch Day286.83742279
Epoch Year2024
RAAN337.828
Inclination97.5975
Eccentricity0.0020156
Argument of Perigee86.8466
Mean Anonmoly273.5069
Mean Motion15.09888071
Decay Rate0.00012397
L11 57191U 23091AB 24286.83742279 .00012397 00000+0 76499-3 0 9991
L22 57191 97.5975 337.8280 0020156 86.8466 273.5069 15.09888071 71232



Live tracking and technical data element details for POLYTECH-UNIVERSE 3 (R*) (NORAD 57191). POLYTECH-UNIVERSE 3 (R*) can be tracked NOW for your location showing map with azimuth and elevation plus other details from your city location.







IsCatalogInMostPopularTable: catalog: 57191, numindb: 38
Update: records affected: 1



GetName: 57191 POLYTECH-UNIVERSE 3 (R*)

Hit Count: updated at: Sat, 25 Jan 2025 00:14:41 GMT